SP5AP-3 Weather Reports


Display with metric or nautical units.
time (UTC)temp
F
wind
direction
speed
MPH
gust
MPH
rain 1hr
in
rain 24hr
in
rain mn
in
humidity
%
barometer
mb
20260505065903 69 4 0.0 1.0 0.00 0.00 0.00 5 1008.8
20260505065402 69 315 1.0 1.0 0.00 0.00 0.00 5 1009.0
20260505064902 68 325 0.0 1.0 0.00 0.00 0.00 6 1009.1
20260505064402 67 175 0.0 1.0 0.00 0.00 0.00 6 1008.8
20260505063901 67 56 0.0 1.0 0.00 0.00 0.00 6 1009.2
20260505063401 66 1 0.0 1.0 0.00 0.00 0.00 6 1009.0
20260505062901 66 223 1.0 1.0 0.00 0.00 0.00 6 1008.9
20260505062400 65 194 0.0 1.0 0.00 0.00 0.00 6 1009.1
20260505061900 66 233 0.0 1.0 0.00 0.00 0.00 6 1009.0
20260505061400 64 209 0.0 1.0 0.00 0.00 0.00 6 1009.2
20260505060859 65 247 1.0 2.0 0.00 0.00 0.00 6 1009.2
20260505060359 64 36 0.0 1.0 0.00 0.00 0.00 6 1009.3
20260505055859 64 247 0.0 1.0 0.00 0.00 0.00 6 1009.3
20260505055358 63 0 0.0 0.0 0.00 0.00 0.00 6 1009.3
20260505054858 63 225 1.0 2.0 0.00 0.00 0.00 6 1009.1
20260505054358 63 21 0.0 1.0 0.00 0.00 0.00 6 1009.4
20260505053857 61 0 0.0 0.0 0.00 0.00 0.00 7 1009.4
20260505053357 61 0 0.0 0.0 0.00 0.00 0.00 7 1009.6
20260505052857 60 0 0.0 0.0 0.00 0.00 0.00 7 1009.4
20260505052356 59 5 0.0 1.0 0.00 0.00 0.00 7 1009.6
20260505051856 59 43 0.0 1.0 0.00 0.00 0.00 7 1009.4
20260505051356 59 0 0.0 0.0 0.00 0.00 0.00 7 1009.3
20260505050855 58 0 0.0 0.0 0.00 0.00 0.00 7 1009.7
20260505050355 58 0 0.0 0.0 0.00 0.00 0.00 7 1009.6
20260505041352 56 0 0.0 0.0 0.00 0.00 0.00 8 1009.6
20260505040852 56 0 0.0 0.0 0.00 0.00 0.00 8 1009.8
20260505040351 56 0 0.0 0.0 0.00 0.00 0.00 7 1009.7
20260505035851 56 0 0.0 0.0 0.00 0.00 0.00 7 1009.7
20260505035351 56 0 0.0 0.0 0.00 0.00 0.00 7 1009.7
20260505034850 55 0 0.0 0.0 0.00 0.00 0.00 7 1009.7
20260505034350 55 15 0.0 1.0 0.00 0.00 0.00 7 1009.9
20260505033849 55 0 0.0 0.0 0.00 0.00 0.00 7 1009.7
20260505033349 55 0 0.0 0.0 0.00 0.00 0.00 7 1009.6
20260505032849 55 0 0.0 0.0 0.00 0.00 0.00 7 1009.9
20260505032348 56 42 0.0 1.0 0.00 0.00 0.00 7 1009.7
20260505031848 56 0 0.0 0.0 0.00 0.00 0.00 7 1009.9
20260505031348 56 0 0.0 0.0 0.00 0.00 0.00 7 1009.8
20260505030847 56 0 0.0 0.0 0.00 0.00 0.00 7 1009.8
20260505030347 56 0 0.0 0.0 0.00 0.00 0.00 7 1009.8
20260505025847 56 0 0.0 0.0 0.00 0.00 0.00 7 1009.8
20260505025347 56 0 0.0 0.0 0.00 0.00 0.00 7 1009.9
20260505024846 56 0 0.0 0.0 0.00 0.00 0.00 7 1010.0
20260505024346 56 0 0.0 0.0 0.00 0.00 0.00 7 1009.8
20260505023845 57 0 0.0 0.0 0.00 0.00 0.00 7 1009.9
20260505023345 57 0 0.0 0.0 0.00 0.00 0.00 7 1009.7
20260505022845 56 0 0.0 0.0 0.00 0.00 0.00 7 1009.7
20260505022344 57 0 0.0 0.0 0.00 0.00 0.00 7 1009.8
20260505021844 57 0 0.0 0.0 0.00 0.00 0.00 7 1009.7
20260505021344 57 0 0.0 0.0 0.00 0.00 0.00 7 1009.8
20260505020843 57 0 0.0 0.0 0.00 0.00 0.00 7 1010.1
20260505020343 57 0 0.0 0.0 0.00 0.00 0.00 7 1009.8
20260505015843 57 0 0.0 0.0 0.00 0.00 0.00 7 1009.9
20260505015342 58 0 0.0 0.0 0.00 0.00 0.00 7 1009.9
20260505014842 58 0 0.0 0.0 0.00 0.00 0.00 7 1010.0
20260505014342 58 0 0.0 0.0 0.00 0.00 0.00 7 1009.9
20260505013842 58 0 0.0 0.0 0.00 0.00 0.00 7 1009.9
20260505013341 59 0 0.0 0.0 0.00 0.00 0.00 7 1010.0
20260505012841 59 0 0.0 0.0 0.00 0.00 0.00 7 1009.9
20260505012341 59 0 0.0 0.0 0.00 0.00 0.00 7 1009.9
20260505011840 59 0 0.0 0.0 0.00 0.00 0.00 7 1010.0
20260505011340 59 0 0.0 0.0 0.00 0.00 0.00 6 1009.7
20260505010839 59 0 0.0 0.0 0.00 0.00 0.00 6 1009.7
20260505010339 59 0 0.0 0.0 0.00 0.00 0.00 6 1009.8
20260505005839 59 0 0.0 0.0 0.00 0.00 0.00 6 1009.8
20260505005339 60 0 0.0 0.0 0.00 0.00 0.00 6 1009.7
20260505004838 60 0 0.0 0.0 0.00 0.00 0.00 6 1009.9
20260505004338 60 0 0.0 0.0 0.00 0.00 0.00 6 1009.8
20260505003837 60 0 0.0 0.0 0.00 0.00 0.00 6 1009.9
20260505003337 60 0 0.0 0.0 0.00 0.00 0.00 6 1010.0
20260505002837 60 0 0.0 0.0 0.00 0.00 0.00 6 1009.9
20260505002336 60 0 0.0 0.0 0.00 0.00 0.00 6 1009.8
20260505001836 60 0 0.0 0.0 0.00 0.00 0.00 6 1009.9
20260505001336 60 0 0.0 0.0 0.00 0.00 0.00 6 1009.8
20260505000835 60 0 0.0 0.0 0.00 0.00 0.00 6 1009.8
20260505000335 60 0 0.0 0.0 0.00 0.00 0.00 6 1009.8
20260504235835 60 0 0.0 0.0 0.00 0.00 0.00 6 1009.9
20260504235334 60 0 0.0 0.0 0.00 0.00 0.00 6 1009.8
20260504234834 60 0 0.0 0.0 0.00 0.00 0.00 6 1010.0
20260504234334 60 0 0.0 0.0 0.00 0.00 0.00 6 1009.7
20260504233833 61 0 0.0 0.0 0.00 0.00 0.00 6 1010.1
20260504233333 61 0 0.0 0.0 0.00 0.00 0.00 6 1010.1
20260504232833 61 0 0.0 0.0 0.00 0.00 0.00 6 1010.1
20260504232332 61 0 0.0 0.0 0.00 0.00 0.00 6 1010.0
20260504231832 61 0 0.0 0.0 0.00 0.00 0.00 6 1010.1
20260504231332 61 0 0.0 0.0 0.00 0.00 0.00 6 1010.1
20260504230831 62 0 0.0 0.0 0.00 0.00 0.00 6 1010.4
20260504230331 62 0 0.0 0.0 0.00 0.00 0.00 6 1010.2
20260504225831 62 0 0.0 0.0 0.00 0.00 0.00 6 1010.1
20260504225330 63 0 0.0 0.0 0.00 0.00 0.00 6 1010.2
20260504224830 63 0 0.0 0.0 0.00 0.00 0.00 6 1010.0
20260504224330 63 0 0.0 0.0 0.00 0.00 0.00 6 1010.1
20260504223829 63 0 0.0 0.0 0.00 0.00 0.00 6 1010.1
20260504223329 64 0 0.0 0.0 0.00 0.00 0.00 5 1010.0
20260504222829 64 0 0.0 0.0 0.00 0.00 0.00 5 1010.2
20260504222328 63 0 0.0 0.0 0.00 0.00 0.00 5 1010.3
20260504221828 63 0 0.0 0.0 0.00 0.00 0.00 5 1010.2
20260504221328 64 0 0.0 0.0 0.00 0.00 0.00 5 1010.2
20260504220827 64 0 0.0 0.0 0.00 0.00 0.00 5 1010.0
20260504220327 64 0 0.0 0.0 0.00 0.00 0.00 5 1010.4
20260504215827 64 0 0.0 0.0 0.00 0.00 0.00 5 1010.4
20260504215326 64 0 0.0 0.0 0.00 0.00 0.00 5 1010.3
20260504214826 64 0 0.0 0.0 0.00 0.00 0.00 5 1010.1
20260504214326 64 0 0.0 0.0 0.00 0.00 0.00 5 1010.2
20260504213825 65 0 0.0 0.0 0.00 0.00 0.00 5 1010.1
20260504213325 65 0 0.0 0.0 0.00 0.00 0.00 5 1010.2
20260504212825 66 0 0.0 0.0 0.00 0.00 0.00 5 1010.3
20260504212324 66 0 0.0 0.0 0.00 0.00 0.00 5 1010.3
20260504211824 66 0 0.0 0.0 0.00 0.00 0.00 5 1010.2
20260504211324 67 0 0.0 0.0 0.00 0.00 0.00 5 1010.2
20260504210823 67 0 0.0 0.0 0.00 0.00 0.00 5 1010.3
20260504210323 67 0 0.0 0.0 0.00 0.00 0.00 5 1010.3
20260504205823 68 0 0.0 0.0 0.00 0.00 0.00 4 1010.3
20260504205322 68 0 0.0 0.0 0.00 0.00 0.00 4 1010.2
20260504204822 68 0 0.0 0.0 0.00 0.00 0.00 4 1010.2
20260504204322 68 0 0.0 0.0 0.00 0.00 0.00 4 1010.1
20260504203821 68 0 0.0 0.0 0.00 0.00 0.00 4 1010.1
20260504203321 68 0 0.0 0.0 0.00 0.00 0.00 4 1009.9
20260504202821 68 0 0.0 0.0 0.00 0.00 0.00 4 1009.8
20260504202320 69 0 0.0 0.0 0.00 0.00 0.00 4 1010.1
20260504201820 69 0 0.0 0.0 0.00 0.00 0.00 4 1009.9
20260504201320 69 0 0.0 0.0 0.00 0.00 0.00 4 1010.1
20260504200819 69 0 0.0 0.0 0.00 0.00 0.00 4 1009.9
20260504200319 69 0 0.0 0.0 0.00 0.00 0.00 4 1009.8
20260504195819 69 0 0.0 0.0 0.00 0.00 0.00 4 1009.7
20260504195318 68 0 0.0 0.0 0.00 0.00 0.00 4 1009.8
20260504194818 68 0 0.0 0.0 0.00 0.00 0.00 4 1009.7
20260504194318 69 0 0.0 0.0 0.00 0.00 0.00 4 1009.7
20260504193817 69 0 0.0 0.0 0.00 0.00 0.00 4 1009.6
20260504193317 69 0 0.0 0.0 0.00 0.00 0.00 4 1009.6
20260504192817 70 0 0.0 0.0 0.00 0.00 0.00 4 1009.8
20260504192316 70 0 0.0 0.0 0.00 0.00 0.00 4 1009.8
20260504191816 70 0 0.0 0.0 0.00 0.00 0.00 4 1009.9
20260504191316 70 0 0.0 0.0 0.00 0.00 0.00 4 1009.8
20260504190815 70 0 0.0 0.0 0.00 0.00 0.00 4 1009.6
20260504190315 71 0 0.0 0.0 0.00 0.00 0.00 4 1009.7
20260504185815 71 0 0.0 0.0 0.00 0.00 0.00 4 1009.7
20260504185314 71 0 0.0 0.0 0.00 0.00 0.00 4 1009.6
20260504184814 71 0 0.0 0.0 0.00 0.00 0.00 4 1009.7
20260504184314 71 0 0.0 0.0 0.00 0.00 0.00 4 1009.6
20260504183813 72 0 0.0 0.0 0.00 0.00 0.00 4 1009.5
20260504183313 72 0 0.0 0.0 0.00 0.00 0.00 3 1009.6
20260504182813 72 0 0.0 0.0 0.00 0.00 0.00 3 1009.3
20260504182312 72 0 0.0 0.0 0.00 0.00 0.00 3 1009.2
20260504181812 73 0 0.0 0.0 0.00 0.00 0.00 3 1009.3
20260504181311 73 0 0.0 0.0 0.00 0.00 0.00 3 1009.3
20260504180811 73 0 0.0 0.0 0.00 0.00 0.00 3 1009.4
20260504180311 74 0 0.0 0.0 0.00 0.00 0.00 3 1009.3
20260504175811 74 0 0.0 0.0 0.00 0.00 0.00 3 1009.3
20260504175310 75 0 0.0 0.0 0.00 0.00 0.00 3 1009.3
20260504174810 75 0 0.0 0.0 0.00 0.00 0.00 3 1009.2
20260504174310 75 343 0.0 1.0 0.00 0.00 0.00 3 1009.1
20260504173809 75 0 0.0 0.0 0.00 0.00 0.00 3 1009.1
20260504173309 76 0 0.0 0.0 0.00 0.00 0.00 3 1009.4
20260504172809 76 45 0.0 1.0 0.00 0.00 0.00 3 1009.0
20260504172308 76 258 1.0 2.0 0.00 0.00 0.00 3 1009.1
20260504171808 76 11 0.0 1.0 0.00 0.00 0.00 3 1009.0
20260504171308 77 12 0.0 1.0 0.00 0.00 0.00 3 1009.1
20260504170807 77 218 0.0 1.0 0.00 0.00 0.00 3 1008.8
20260504170307 77 0 0.0 0.0 0.00 0.00 0.00 3 1009.0
20260504160303 79 251 0.0 1.0 0.00 0.00 0.00 3 1009.1
20260504150759 80 4 0.0 1.0 0.00 0.00 0.00 3 1009.2
20260504150259 80 12 0.0 1.0 0.00 0.00 0.00 3 1009.3
20260504141256 80 242 2.0 3.0 0.00 0.00 0.00 3 1009.5
20260504140755 80 347 0.0 1.0 0.00 0.00 0.00 3 1009.4
20260504140255 80 334 0.0 1.0 0.00 0.00 0.00 3 1009.6
20260504130751 79 215 2.0 3.0 0.00 0.00 0.00 3 1010.0
20260504130251 79 16 1.0 5.0 0.00 0.00 0.00 3 1010.2
20260504120247 80 354 0.0 1.0 0.00 0.00 0.00 3 1010.7
20260504110243 79 0 0.0 0.0 0.00 0.00 0.00 2 1011.1
20260504100239 78 0 0.0 0.0 0.00 0.00 0.00 3 1011.6
20260504081732 75 350 1.0 2.0 0.00 0.00 0.00 3 1012.0
20260504081232 75 0 2.0 3.0 0.00 0.00 0.00 3 1012.0
20260504080731 75 205 1.0 2.0 0.00 0.00 0.00 3 1011.9
20260504080231 74 86 1.0 1.0 0.00 0.00 0.00 3 1012.1
20260504070227 71 26 0.0 1.0 0.00 0.00 0.00 3 1012.5